| time (UTC) | temp F | wind direction | speed MPH | gust MPH | rain 1hr in | rain 24hr in | rain mn in | humidity % | barometer mb |
| 20260510094517 | 76 | 169 | 5.0 | 8.0 | 0.00 | 0.04 | 0.00 | 88 | 1011.4 |
| 20260510093012 | 76 | 178 | 6.0 | 9.0 | 0.00 | 0.04 | 0.00 | 88 | 1011.4 |
| 20260510091510 | 76 | 176 | 6.0 | 11.0 | 0.00 | 0.04 | 0.00 | 88 | 1011.4 |
| 20260510090015 | 76 | 162 | 6.0 | 8.0 | 0.00 | 0.04 | 0.00 | 88 | 1011.3 |
| 20260510084508 | 76 | 171 | 3.0 | 7.0 | 0.00 | 0.04 | 0.00 | 88 | 1011.3 |
| 20260510083006 | 76 | 164 | 5.0 | 7.0 | 0.00 | 0.04 | 0.00 | 87 | 1011.3 |
| 20260510081519 | 76 | 148 | 4.0 | 8.0 | 0.00 | 0.04 | 0.00 | 87 | 1011.3 |
| 20260510080005 | 76 | 146 | 4.0 | 7.0 | 0.00 | 0.04 | 0.00 | 87 | 1011.4 |
| 20260510074504 | 76 | 130 | 4.0 | 8.0 | 0.00 | 0.04 | 0.00 | 87 | 1011.3 |
| 20260510073003 | 76 | 126 | 6.0 | 10.0 | 0.00 | 0.04 | 0.00 | 87 | 1011.3 |
| 20260510071501 | 76 | 136 | 5.0 | 12.0 | 0.00 | 0.04 | 0.00 | 86 | 1011.4 |
| 20260510070105 | 77 | 134 | 6.0 | 10.0 | 0.00 | 0.04 | 0.00 | 86 | 1011.5 |
| 20260510064604 | 77 | 110 | 7.0 | 10.0 | 0.00 | 0.04 | 0.00 | 85 | 1011.7 |
| 20260510063058 | 77 | 131 | 5.0 | 12.0 | 0.00 | 0.04 | 0.00 | 84 | 1011.7 |
| 20260510061556 | 77 | 109 | 6.0 | 10.0 | 0.00 | 0.04 | 0.00 | 84 | 1012.0 |
| 20260510060054 | 77 | 94 | 8.0 | 13.0 | 0.00 | 0.04 | 0.00 | 84 | 1012.1 |
| 20260510054552 | 77 | 119 | 6.0 | 10.0 | 0.00 | 0.04 | 0.00 | 83 | 1012.1 |
| 20260510053050 | 77 | 98 | 4.0 | 9.0 | 0.00 | 0.04 | 0.00 | 83 | 1012.0 |
| 20260510051547 | 77 | 143 | 5.0 | 9.0 | 0.00 | 0.04 | 0.00 | 82 | 1011.7 |
| 20260510050043 | 77 | 141 | 5.0 | 9.0 | 0.00 | 0.04 | 0.00 | 81 | 1011.5 |
| 20260510044545 | 77 | 162 | 4.0 | 9.0 | 0.00 | 0.04 | 0.04 | 80 | 1011.5 |
| 20260510043045 | 78 | 155 | 5.0 | 11.0 | 0.00 | 0.04 | 0.04 | 80 | 1011.2 |
| 20260510041542 | 78 | 159 | 7.0 | 11.0 | 0.00 | 0.04 | 0.04 | 80 | 1011.0 |
| 20260510040042 | 78 | 168 | 8.0 | 11.0 | 0.00 | 0.04 | 0.04 | 80 | 1010.8 |
| 20260510034542 | 78 | 154 | 8.0 | 11.0 | 0.00 | 0.04 | 0.04 | 80 | 1011.2 |
| 20260510033051 | 78 | 126 | 5.0 | 10.0 | 0.00 | 0.04 | 0.04 | 79 | 1011.1 |
| 20260510031547 | 78 | 137 | 6.0 | 10.0 | 0.00 | 0.04 | 0.04 | 77 | 1011.1 |
| 20260510030040 | 78 | 158 | 6.0 | 11.0 | 0.00 | 0.04 | 0.04 | 77 | 1010.7 |
| 20260510024544 | 79 | 160 | 7.0 | 13.0 | 0.00 | 0.04 | 0.04 | 76 | 1010.3 |
| 20260510023040 | 79 | 172 | 9.0 | 17.0 | 0.00 | 0.04 | 0.04 | 76 | 1009.7 |
| 20260510021539 | 79 | 174 | 10.0 | 18.0 | 0.00 | 0.04 | 0.04 | 75 | 1009.2 |
| 20260510020039 | 79 | 190 | 10.0 | 14.0 | 0.00 | 0.04 | 0.04 | 74 | 1009.5 |
| 20260510014538 | 79 | 184 | 10.0 | 13.0 | 0.00 | 0.04 | 0.04 | 73 | 1009.2 |
| 20260510013038 | 80 | 201 | 7.0 | 11.0 | 0.00 | 0.04 | 0.04 | 73 | 1009.7 |
| 20260510011549 | 80 | 174 | 6.0 | 11.0 | 0.00 | 0.04 | 0.04 | 73 | 1009.6 |
| 20260510010037 | 80 | 150 | 6.0 | 10.0 | 0.00 | 0.04 | 0.04 | 73 | 1009.4 |
| 20260510004540 | 81 | 186 | 7.0 | 11.0 | 0.00 | 0.04 | 0.04 | 71 | 1009.4 |
| 20260510003058 | 81 | 144 | 8.0 | 15.0 | 0.00 | 0.04 | 0.04 | 72 | 1009.2 |
| 20260510001539 | 81 | 167 | 11.0 | 15.0 | 0.00 | 0.04 | 0.04 | 70 | 1009.1 |
| 20260510000038 | 82 | 167 | 9.0 | 15.0 | 0.00 | 0.04 | 0.04 | 71 | 1009.0 |
| 20260509234540 | 82 | 153 | 10.0 | 17.0 | 0.00 | 0.04 | 0.04 | 69 | 1009.2 |
| 20260509233034 | 83 | 160 | 12.0 | 17.0 | 0.00 | 0.04 | 0.04 | 66 | 1009.1 |
| 20260509231542 | 83 | 148 | 12.0 | 16.0 | 0.00 | 0.04 | 0.04 | 66 | 1009.3 |
| 20260509230035 | 84 | 177 | 11.0 | 16.0 | 0.00 | 0.04 | 0.04 | 66 | 1009.2 |
| 20260509224534 | 84 | 153 | 7.0 | 15.0 | 0.00 | 0.04 | 0.04 | 65 | 1009.1 |
| 20260509223032 | 85 | 161 | 9.0 | 10.0 | 0.00 | 0.04 | 0.04 | 67 | 1009.2 |
| 20260509221530 | 86 | 155 | 6.0 | 10.0 | 0.00 | 0.04 | 0.04 | 63 | 1009.1 |
| 20260509220029 | 86 | 165 | 2.0 | 9.0 | 0.00 | 0.04 | 0.04 | 60 | 1009.1 |
| 20260509214527 | 85 | 92 | 3.0 | 8.0 | 0.00 | 0.04 | 0.04 | 60 | 1009.2 |
| 20260509213025 | 85 | 105 | 4.0 | 8.0 | 0.00 | 0.04 | 0.04 | 61 | 1009.3 |
| 20260509211521 | 84 | 101 | 3.0 | 8.0 | 0.00 | 0.04 | 0.04 | 63 | 1009.3 |
| 20260509210023 | 83 | 96 | 5.0 | 9.0 | 0.00 | 0.04 | 0.04 | 65 | 1009.1 |
| 20260509204518 | 83 | 136 | 5.0 | 9.0 | 0.00 | 0.04 | 0.04 | 68 | 1009.4 |
| 20260509203021 | 82 | 96 | 3.0 | 8.0 | 0.00 | 0.04 | 0.04 | 72 | 1009.6 |
| 20260509201517 | 82 | 56 | 4.0 | 8.0 | 0.00 | 0.04 | 0.04 | 75 | 1009.7 |
| 20260509200021 | 81 | 61 | 4.0 | 10.0 | 0.00 | 0.04 | 0.04 | 76 | 1009.9 |
| 20260509194516 | 81 | 42 | 6.0 | 9.0 | 0.00 | 0.04 | 0.04 | 76 | 1010.0 |
| 20260509193014 | 81 | 53 | 4.0 | 10.0 | 0.00 | 0.04 | 0.04 | 76 | 1010.0 |
| 20260509191513 | 82 | 45 | 6.0 | 10.0 | 0.00 | 0.04 | 0.04 | 74 | 1010.1 |
| 20260509190016 | 81 | 22 | 8.0 | 12.0 | 0.00 | 0.04 | 0.04 | 72 | 1010.1 |
| 20260509184510 | 81 | 30 | 7.0 | 12.0 | 0.00 | 0.04 | 0.04 | 76 | 1010.1 |
| 20260509183021 | 81 | 345 | 6.0 | 12.0 | 0.00 | 0.04 | 0.04 | 76 | 1010.3 |
| 20260509181507 | 80 | 5 | 7.0 | 11.0 | 0.00 | 0.04 | 0.04 | 76 | 1010.4 |
| 20260509180007 | 80 | 360 | 5.0 | 12.0 | 0.00 | 0.04 | 0.04 | 76 | 1010.6 |
| 20260509174508 | 80 | 355 | 8.0 | 13.0 | 0.00 | 0.04 | 0.04 | 75 | 1010.7 |
| 20260509173006 | 80 | 348 | 8.0 | 13.0 | 0.00 | 0.04 | 0.04 | 74 | 1010.7 |
| 20260509171507 | 80 | 331 | 6.0 | 11.0 | 0.00 | 0.04 | 0.04 | 73 | 1010.6 |
| 20260509170006 | 79 | 345 | 6.0 | 9.0 | 0.00 | 0.04 | 0.04 | 74 | 1010.5 |
| 20260509164509 | 80 | 323 | 3.0 | 5.0 | 0.00 | 0.04 | 0.04 | 69 | 1010.8 |
| 20260509163003 | 80 | 284 | 0.0 | 3.0 | 0.00 | 0.04 | 0.04 | 70 | 1010.6 |
| 20260509161600 | 79 | 269 | 2.0 | 4.0 | 0.00 | 0.04 | 0.04 | 72 | 1010.4 |
| 20260509160059 | 78 | 283 | 0.0 | 5.0 | 0.00 | 0.04 | 0.04 | 75 | 1010.1 |
| 20260509154601 | 77 | 355 | 4.0 | 6.0 | 0.00 | 0.04 | 0.04 | 76 | 1010.2 |
| 20260509153058 | 77 | 321 | 5.0 | 9.0 | 0.00 | 0.04 | 0.04 | 75 | 1010.6 |
| 20260509151556 | 78 | 342 | 5.0 | 13.0 | 0.00 | 0.04 | 0.04 | 70 | 1010.8 |
| 20260509150052 | 75 | 316 | 10.0 | 17.0 | 0.00 | 0.04 | 0.04 | 79 | 1010.8 |
| 20260509144552 | 75 | 186 | 8.0 | 13.0 | 0.00 | 0.04 | 0.04 | 78 | 1010.5 |
| 20260509143052 | 75 | 323 | 10.0 | 16.0 | 0.00 | 0.04 | 0.04 | 81 | 1010.8 |
| 20260509141556 | 75 | 186 | 11.0 | 20.0 | 0.00 | 0.04 | 0.04 | 81 | 1009.9 |
| 20260509140057 | 75 | 166 | 18.0 | 27.0 | 0.00 | 0.04 | 0.04 | 80 | 1009.3 |
| 20260509134556 | 75 | 186 | 18.0 | 24.0 | 0.01 | 0.04 | 0.04 | 85 | 1009.2 |
| 20260509133046 | 76 | 169 | 18.0 | 24.0 | 0.01 | 0.04 | 0.04 | 91 | 1009.2 |
| 20260509131543 | 75 | 151 | 14.0 | 21.0 | 0.01 | 0.04 | 0.04 | 92 | 1009.5 |
| 20260509130040 | 75 | 167 | 8.0 | 12.0 | 0.02 | 0.04 | 0.04 | 92 | 1009.7 |
| 20260509124539 | 75 | 188 | 6.0 | 10.0 | 0.02 | 0.03 | 0.03 | 92 | 1011.1 |
| 20260509123039 | 75 | 225 | 4.0 | 8.0 | 0.02 | 0.03 | 0.03 | 92 | 1011.8 |
| 20260509121539 | 75 | 226 | 2.0 | 6.0 | 0.02 | 0.03 | 0.03 | 92 | 1012.1 |
| 20260509120044 | 75 | 223 | 3.0 | 7.0 | 0.02 | 0.02 | 0.02 | 92 | 1012.3 |
| 20260509114537 | 75 | 198 | 3.0 | 5.0 | 0.01 | 0.01 | 0.01 | 92 | 1012.2 |
| 20260509113037 | 75 | 211 | 1.0 | 5.0 | 0.01 | 0.01 | 0.01 | 92 | 1012.4 |
| 20260509111534 | 75 | 252 | 3.0 | 8.0 | 0.01 | 0.01 | 0.01 | 92 | 1012.2 |
| 20260509110035 | 75 | 273 | 4.0 | 7.0 | 0.00 | 0.00 | 0.00 | 92 | 1011.8 |
| 20260509104538 | 75 | 5 | 0.0 | 2.0 | 0.00 | 0.00 | 0.00 | 92 | 1010.4 |
| 20260509103032 | 75 | 51 | 1.0 | 3.0 | 0.00 | 0.00 | 0.00 | 92 | 1010.0 |
| 20260509101534 | 75 | 42 | 0.0 | 2.0 | 0.00 | 0.00 | 0.00 | 92 | 1009.8 |
| 20260509100029 | 75 | 360 | 0.0 | 0.0 | 0.00 | 0.00 | 0.00 | 92 | 1009.7 |